Wind_Speed
8 10 9 10 10 11 11 12 13 14 16 17 19 19 19 18 17 18 19 20 20 20 20 18 16 15 15 14 11 8 8 9 10 10 9 9 8 6 4 3 4 5 6
7 8 8 8 9 9 10 10 10 11 12 14 15 16 16 15 15 16 17 17 18 18 19 19 17 16 15 14 13 11 8 6 6 7 7 7 7 6 4 2 2 2 2
7 7 6 6 7 8 9 9 8 9 10 11 12 13 13 13 13 13 14 14 15 15 16 17 17 15 14 14 13 12 10 7 5 5 5 6 5 6 6 4 2 1 1
6 7 6 5 6 7 7 8 8 9 9 9 9 9 9 9 10 11 12 12 12 13 13 14 14 14 12 12 12 11 11 9 8 6 5 4 4 4 5 5 4 3 1
5 5 4 5 5 6 6 6 7 7 7 7 6 6 6 6 7 8 9 10 10 10 10 11 11 11 11 10 9 9 9 9 10 9 8 5 4 3 3 3 3 3 3
6 5 5 5 5 5 5 5 5 5 5 4 4 4 4 4 5 6 7 8 9 9 9 9 9 9 8 8 7 7 7 8 8 10 10 8 5 4 4 3 2 2 2
8 8 8 7 7 6 5 4 4 4 4 4 4 4 4 4 5 6 7 9 9 10 10 10 9 9 8 7 6 5 5 6 7 7 9 10 8 4 4 4 3 3 2
9 9 9 9 8 6 5 3 3 3 3 4 4 4 4 5 6 8 10 12 13 14 13 11 10 9 9 8 7 6 5 5 6 6 6 7 8 7 4 4 4 5 4
9 9 9 9 9 7 6 5 4 3 4 5 5 6 7 8 10 12 14 15 16 16 16 15 12 10 9 9 8 7 7 7 7 7 7 6 6 6 6 5 5 6 6
9 9 9 9 10 10 9 8 7 7 8 9 10 11 12 13 15 17 18 18 18 18 18 19 18 15 13 11 11 10 9 9 9 9 10 9 9 7 5 5 5 6 7
13 11 11 12 12 13 13 14 14 14 15 16 16 17 17 18 19 20 21 22 22 21 22 22 22 20 17 16 14 14 13 13 12 12 12 12 12 11 9 7 6 7 7
20 19 17 18 18 18 19 20 21 21 22 23 23 23 23 23 23 24 25 26 26 25 25 25 25 24 23 21 20 18 18 17 16 16 16 15 15 14 13 11 11 10 9
25 25 24 24 24 24 25 26 27 27 28 28 29 29 29 29 29 29 29 30 30 30 30 29 28 28 27 27 26 24 23 22 20 19 18 18 17 16 16 16 16 14 13
29 29 29 29 29 29 30 31 31 31 32 33 34 34 34 35 34 34 34 34 34 35 35 34 33 32 31 31 31 30 29 28 26 24 22 21 20 19 19 19 20 19 18
31 31 32 33 34 34 35 35 35 35 35 36 36 37 38 39 39 39 38 38 38 39 39 38 36 35 35 35 34 33 33 32 31 29 26 25 24 23 22 23 23 23 23
30 29 30 33 35 37 38 38 39 39 38 38 39 40 41 42 43 44 43 41 41 42 43 42 40 38 38 38 37 36 35 34 33 32 30 28 28 28 27 27 27 27 27
28 27 27 28 31 34 35 36 37 38 39 38 39 40 40 41 41 41 40 39 38 39 40 40 40 40 40 39 38 37 36 35 34 34 34 32 31 31 32 30 30 30 31
28 28 27 27 28 29 31 32 33 34 36 37 37 37 38 38 38 37 36 36 38 39 38 37 37 38 39 39 38 37 36 36 36 36 35 35 34 33 33 33 33 32 33
29 29 28 25 24 25 26 28 29 31 33 35 36 37 39 40 40 40 39 39 39 40 40 40 41 42 42 42 42 41 40 40 39 38 36 35 34 34 34 34 34 34 34
30 29 28 27 26 25 25 25 27 29 31 34 36 37 38 39 40 41 41 42 42 42 42 43 44 44 44 43 43 42 41 40 38 37 36 36 34 33 33 33 33 34 35
30 29 28 28 28 28 28 28 28 29 30 32 33 34 35 36 37 38 38 38 39 39 40 41 42 42 42 42 41 39 38 37 35 35 35 35 34 33 33 32 32 34 35
30 29 29 30 30 29 29 30 31 32 33 34 35 36 36 36 37 37 37 36 36 35 35 36 37 38 38 38 38 37 36 35 34 34 35 35 34 34 33 32 32 33 35
30 31 32 31 30 30 30 30 30 31 32 34 36 37 38 39 39 39 39 39 38 36 35 35 35 35 36 36 37 37 36 35 36 36 36 36 36 35 33 32 31 32 33
31 31 31 29 28 28 28 27 26 27 29 31 33 35 36 38 40 41 41 41 41 40 38 37 36 36 37 37 38 38 37 36 35 35 37 37 38 36 34 32 32 32 32
30 29 28 26 25 23 22 22 22 24 26 29 32 34 35 36 38 39 40 41 41 41 40 39 38 37 37 37 37 37 37 36 36 35 35 36 37 36 34 33 33 31 30
27 26 25 24 22 20 20 21 23 25 26 29 31 33 35 35 36 37 39 40 41 42 41 40 39 38 37 37 37 37 38 38 37 37 36 35 37 36 34 32 31 30 29
Wind_Direction
75 63 49 43 48 56 64 67 67 66 62 58 56 53 50 48 47 43 39 38 38 38 38 37 37 38 40 41 43 45 48 48 45 46 51 54 51 51 66 102 104 96 95
72 63 49 37 40 50 59 60 56 53 52 52 52 51 49 46 41 37 35 33 34 36 37 38 37 35 36 37 38 40 43 45 44 41 42 50 58 61 64 86 125 132 116
68 68 54 35 35 43 52 53 44 36 36 40 44 47 46 43 38 34 32 30 29 30 33 35 37 35 34 35 37 40 41 39 28 25 30 35 45 64 69 67 81 170 198
62 64 53 35 33 36 42 43 39 34 30 31 38 43 45 41 35 28 25 24 22 21 23 27 29 31 32 34 36 40 41 40 32 15 4 6 11 33 59 64 60 54 39
33 43 37 25 24 24 26 26 27 27 28 29 33 39 40 34 25 18 15 14 13 10 8 10 13 17 21 25 29 36 39 39 39 34 20 359 340 334 359 33 47 46 41
354 351 346 346 349 353 360 5 4 5 10 15 16 14 10 2 357 355 353 355 357 355 351 350 354 357 1 7 13 21 27 25 29 37 37 29 6 326 303 305 327 348 19
338 335 333 334 335 338 345 349 344 343 349 353 350 343 336 328 323 323 325 328 332 335 335 334 337 337 336 339 343 349 357 2 3 14 27 33 30 2 300 277 269 275 286
329 326 328 335 338 336 333 327 321 321 328 335 336 331 325 319 315 312 311 312 314 315 316 317 319 323 324 323 321 319 318 322 330 338 355 12 22 18 330 284 269 268 268
339 335 333 332 329 321 312 305 298 291 297 307 310 308 303 304 307 307 305 304 305 306 304 302 301 305 309 311 310 310 306 301 300 304 312 327 346 1 359 323 286 269 268
333 332 329 325 322 316 309 302 296 292 292 296 298 297 292 294 297 300 299 298 299 300 300 299 296 293 290 289 290 293 296 295 292 289 290 296 303 315 332 338 313 285 270
305 304 302 300 300 300 299 296 293 292 291 292 293 293 290 289 291 293 293 294 295 295 296 295 294 293 288 283 281 282 286 287 286 284 281 280 283 286 293 298 299 294 282
296 289 284 283 284 286 287 288 288 288 288 289 289 290 290 289 290 291 290 289 290 290 290 290 290 289 286 281 278 276 277 279 280 280 279 276 274 274 274 275 277 280 280
294 291 286 283 282 282 282 282 283 285 286 287 287 288 288 287 287 288 288 286 285 284 283 282 282 282 281 280 277 274 272 272 273 274 275 275 273 272 268 264 263 264 268
292 290 289 287 285 283 281 279 279 279 281 282 283 283 283 282 282 281 281 281 280 279 278 276 275 274 275 275 274 274 273 271 270 270 270 271 271 270 268 264 260 258 258
290 287 285 284 283 282 280 278 277 276 277 278 279 279 279 279 278 277 274 273 273 273 272 270 268 268 268 269 270 271 272 271 270 269 270 270 269 270 270 267 263 259 257
291 289 285 281 279 277 277 277 277 276 277 277 278 278 279 279 279 277 273 271 271 271 269 266 265 264 264 265 267 268 270 272 271 271 271 272 272 272 273 273 267 261 258
293 291 289 287 284 281 280 279 279 280 281 281 280 280 281 281 282 282 280 277 276 278 277 273 271 272 271 271 271 272 272 272 272 271 272 273 274 273 275 274 270 263 258
295 294 293 291 288 285 282 281 281 281 282 283 282 280 280 281 282 282 281 280 278 277 279 277 275 275 275 275 275 276 275 274 274 272 272 273 274 274 274 272 269 264 259
297 295 296 295 292 290 289 287 285 284 283 282 282 282 282 281 281 280 281 281 279 278 277 276 275 274 274 275 275 275 276 274 272 271 272 273 274 274 275 272 268 264 260
300 298 299 300 300 300 301 302 299 294 290 287 286 285 284 283 282 281 280 279 278 277 276 276 275 274 274 273 273 274 274 275 272 270 271 273 273 273 272 270 266 262 260
301 302 305 307 305 302 302 304 303 301 298 294 291 288 286 284 282 282 281 281 279 278 276 275 274 273 272 272 271 272 273 274 275 272 270 270 270 269 268 268 264 260 260
300 304 308 309 309 306 304 303 303 302 300 298 295 292 289 286 283 282 281 280 280 279 278 276 275 273 272 271 271 272 273 273 272 270 269 269 268 267 267 268 264 260 260
299 304 308 310 312 311 310 309 308 307 306 305 302 298 293 289 285 282 279 278 277 276 276 276 275 273 272 271 272 274 275 273 269 268 268 267 267 268 268 268 266 263 262
299 303 307 310 312 313 314 315 316 317 317 316 313 307 300 293 287 283 280 277 275 275 274 274 274 274 272 272 273 274 275 275 272 269 267 267 267 267 268 268 266 265 263
297 301 303 304 305 308 312 316 320 323 325 325 324 319 312 303 295 287 281 277 275 274 274 274 275 274 273 273 273 273 274 276 275 273 269 266 266 267 268 268 264 263 263
293 295 294 294 296 301 306 311 315 317 320 324 326 326 322 315 305 295 286 280 275 273 273 273 274 274 273 273 273 273 273 275 276 274 272 268 268 267 266 265 260 258 258
Height
5916 5917 5917 5916 5915 5914 5913 5912 5911 5911 5910 5910 5909 5909 5909 5909 5908 5907 5907 5906 5905 5905 5904 5903 5902 5901 5900 5899 5899 5898 5898 5897 5897 5896 5895 5894 5894 5894 5894 5893 5893 5893 5893
5916 5916 5917 5916 5915 5914 5913 5912 5912 5911 5911 5910 5910 5909 5909 5909 5908 5908 5907 5907 5906 5905 5904 5904 5903 5902 5901 5900 5899 5898 5897 5897 5897 5896 5896 5895 5894 5894 5895 5895 5894 5895 5895
5916 5916 5916 5916 5915 5914 5913 5913 5912 5911 5911 5910 5910 5910 5909 5909 5909 5908 5907 5907 5906 5905 5904 5904 5904 5903 5902 5901 5900 5899 5898 5897 5897 5897 5897 5896 5896 5895 5895 5895 5895 5895 5895
5917 5916 5915 5915 5914 5914 5913 5912 5912 5911 5911 5910 5910 5910 5909 5909 5909 5908 5907 5907 5906 5905 5904 5904 5904 5903 5902 5902 5901 5900 5898 5897 5897 5897 5896 5896 5896 5895 5895 5895 5895 5895 5895
5917 5916 5916 5915 5914 5913 5912 5911 5911 5911 5911 5910 5910 5909 5909 5909 5908 5908 5907 5906 5906 5905 5904 5903 5903 5902 5902 5901 5901 5900 5899 5897 5896 5896 5896 5895 5895 5895 5895 5895 5895 5896 5896
5917 5916 5915 5914 5913 5912 5912 5911 5911 5910 5910 5909 5909 5909 5908 5908 5907 5907 5906 5906 5905 5905 5904 5903 5902 5902 5901 5900 5900 5899 5898 5897 5896 5895 5895 5894 5894 5893 5893 5893 5894 5895 5895
5916 5916 5915 5914 5912 5912 5911 5910 5910 5909 5909 5909 5908 5908 5907 5907 5906 5906 5905 5905 5904 5903 5903 5902 5901 5900 5899 5898 5898 5897 5896 5895 5895 5894 5893 5893 5892 5892 5891 5891 5892 5893 5894
5916 5916 5915 5913 5912 5911 5911 5910 5909 5909 5908 5908 5908 5907 5907 5906 5906 5905 5905 5904 5903 5902 5901 5900 5899 5898 5897 5896 5896 5895 5895 5894 5893 5892 5891 5891 5891 5890 5889 5889 5890 5891 5892
5916 5915 5914 5913 5912 5911 5910 5910 5909 5909 5908 5908 5907 5907 5906 5905 5905 5904 5903 5902 5902 5901 5900 5899 5897 5896 5895 5895 5894 5893 5893 5892 5891 5891 5890 5889 5889 5888 5888 5887 5888 5888 5889
5915 5914 5913 5912 5911 5911 5910 5909 5909 5908 5907 5907 5906 5905 5905 5904 5903 5902 5901 5900 5899 5898 5898 5897 5896 5894 5893 5892 5892 5891 5890 5890 5889 5889 5888 5888 5887 5886 5886 5886 5886 5886 5887
5913 5912 5911 5911 5910 5909 5908 5907 5907 5906 5905 5904 5903 5903 5902 5901 5900 5899 5898 5897 5896 5895 5894 5894 5893 5892 5891 5890 5889 5888 5887 5887 5886 5886 5886 5885 5885 5884 5884 5883 5884 5884 5884
5910 5909 5908 5907 5906 5905 5904 5903 5903 5902 5902 5901 5900 5899 5898 5897 5897 5896 5894 5893 5892 5891 5890 5889 5888 5888 5887 5886 5885 5885 5884 5883 5882 5882 5882 5882 5882 5882 5881 5881 5881 5881 5881
5906 5905 5904 5903 5902 5901 5900 5899 5898 5898 5897 5896 5895 5894 5893 5892 5891 5890 5889 5888 5887 5885 5884 5883 5883 5882 5882 5881 5880 5880 5879 5879 5878 5878 5878 5877 5877 5878 5878 5878 5878 5878 5878
5901 5900 5898 5897 5896 5895 5894 5893 5892 5892 5891 5890 5888 5888 5886 5885 5884 5883 5882 5881 5879 5878 5877 5876 5876 5875 5875 5874 5873 5873 5873 5873 5873 5873 5873 5873 5873 5873 5874 5874 5874 5873 5873
5896 5893 5891 5890 5888 5887 5886 5885 5884 5884 5883 5882 5881 5879 5878 5877 5875 5874 5874 5872 5871 5870 5868 5868 5867 5867 5866 5866 5866 5865 5865 5866 5866 5866 5866 5867 5867 5867 5867 5868 5868 5868 5868
5890 5887 5885 5883 5881 5879 5878 5877 5876 5875 5875 5874 5873 5871 5869 5867 5866 5864 5863 5862 5861 5860 5859 5858 5858 5857 5857 5857 5857 5857 5857 5858 5859 5859 5859 5859 5860 5859 5860 5860 5861 5862 5862
5884 5881 5879 5876 5874 5872 5870 5869 5868 5867 5866 5865 5864 5862 5860 5858 5856 5854 5853 5853 5852 5851 5850 5849 5849 5849 5849 5848 5848 5848 5849 5850 5850 5851 5851 5852 5852 5851 5851 5852 5853 5853 5854
5877 5875 5873 5870 5867 5865 5863 5861 5860 5858 5857 5856 5855 5854 5852 5850 5848 5847 5846 5845 5844 5843 5843 5842 5842 5842 5841 5841 5840 5840 5840 5841 5842 5842 5843 5843 5843 5843 5843 5843 5844 5844 5846
5870 5867 5865 5863 5861 5859 5856 5854 5853 5851 5850 5848 5847 5845 5843 5842 5840 5839 5838 5838 5836 5835 5835 5834 5834 5833 5833 5832 5832 5832 5832 5832 5833 5833 5834 5834 5834 5835 5835 5834 5834 5835 5836
5862 5860 5857 5855 5854 5852 5850 5848 5846 5844 5843 5841 5839 5837 5835 5833 5832 5830 5829 5828 5827 5826 5826 5825 5824 5823 5823 5823 5822 5823 5823 5824 5824 5824 5824 5825 5825 5826 5826 5826 5825 5825 5826
5856 5853 5851 5849 5846 5844 5843 5841 5839 5838 5836 5833 5831 5829 5826 5824 5822 5820 5819 5817 5816 5816 5816 5815 5814 5813 5813 5813 5812 5813 5814 5814 5814 5815 5814 5815 5816 5816 5817 5817 5816 5816 5817
5850 5847 5845 5842 5840 5837 5835 5834 5832 5830 5828 5826 5824 5821 5818 5816 5813 5811 5809 5808 5806 5806 5805 5804 5803 5803 5803 5802 5802 5802 5803 5805 5805 5805 5805 5805 5806 5807 5807 5807 5807 5807 5807
5844 5841 5839 5836 5833 5831 5828 5826 5824 5822 5820 5818 5815 5812 5809 5806 5804 5802 5800 5798 5797 5796 5796 5795 5794 5793 5793 5793 5792 5791 5792 5794 5795 5795 5795 5795 5796 5797 5797 5797 5797 5798 5798
5839 5836 5833 5830 5828 5825 5823 5820 5818 5816 5813 5810 5806 5803 5799 5795 5793 5790 5789 5788 5787 5786 5786 5785 5784 5783 5783 5783 5782 5782 5782 5782 5784 5785 5785 5785 5785 5786 5787 5787 5788 5788 5788
5834 5831 5828 5825 5823 5821 5818 5816 5813 5810 5807 5803 5798 5794 5790 5786 5782 5779 5778 5776 5775 5775 5774 5774 5773 5773 5772 5772 5772 5772 5772 5772 5772 5773 5775 5775 5774 5775 5777 5778 5778 5779 5779
5829 5826 5823 5820 5818 5815 5813 5810 5807 5804 5800 5797 5792 5787 5782 5777 5772 5769 5766 5765 5763 5763 5762 5762 5762 5762 5762 5761 5761 5761 5761 5762 5762 5762 5763 5764 5764 5765 5767 5768 5769 5770 5770